Weather History for KCDW - November, 2013

Change the Weather History Date:

Friday, November 29, 2013

  Actual Average Record
Temperature  
Mean Temperature 32 °F -  
Max Temperature 36 °F 51 °F 69 °F (1990)
Min Temperature 26 °F 31 °F 13 °F (1955)
Degree Days  
Heating Degree Days 34    
Moisture  
Dew Point 16 °F    
Average Humidity 54    
Maximum Humidity 72    
Minimum Humidity 44    
Precipitation  
Precipitation 0.00 in - - ()
Sea Level Pressure  
Sea Level Pressure 30.63 in    
Wind  
Wind Speed 1 mph (NNW)    
Max Wind Speed 10 mph    
Max Gust Speed -    
Visibility 10 miles    
Events      
Averages and records for this station are not official NWS values.
T = Trace of Precipitation, MM = Missing Value Source: NWS Daily Summary

Daily Weather History Graph

Daily Weather History Graph

Search for Another Location

Airport or City:

Trip Planner

Search our weather history database for the weather conditions in past years. The results will help you decide how hot, cold, wet, or windy it might be!

Date:

Astronomy

Nov. 29, 2013 Rise Set
Actual Time 7:00 AM EST 4:30 PM EST
Civil Twilight 6:30 AM EST 5:00 PM EST
Nautical Twilight 5:56 AM EST 5:34 PM EST
Astronomical Twilight 5:23 AM EST 6:07 PM EST
Moon 3:01 AM EST (11/29) 2:14 PM EST (11/29)
Length of Visible Light 10h 30m
Length of Day
9h 30m
Waning Crescent, 14% of the Moon is Illuminated
Nov 29
Waning Crescent
Dec 2
New
Dec 9
First Quarter
Dec 17
Full
Dec 25
Last Quarter

Hourly Weather History & Observations

Time (EST) Temp. Windchill Dew Point Humidity Pressure Visibility Wind Dir Wind Speed Gust Speed Precip Events Conditions
12:53 AM 30.0 °F - 12.9 °F 49% 30.50 in 10.0 mi Calm Calm - N/A   Overcast
1:53 AM 30.0 °F - 12.9 °F 49% 30.51 in 10.0 mi Calm Calm - N/A   Overcast
2:53 AM 30.0 °F - 15.1 °F 54% 30.51 in 10.0 mi Calm Calm - N/A   Overcast
3:53 AM 28.9 °F - 17.1 °F 61% 30.51 in 10.0 mi Calm Calm - N/A   Overcast
4:53 AM 28.9 °F - 17.1 °F 61% 30.52 in 10.0 mi Calm Calm - N/A   Overcast
5:53 AM 28.0 °F - 18.0 °F 66% 30.54 in 10.0 mi Calm Calm - N/A   Overcast
6:53 AM 28.0 °F - 18.0 °F 66% 30.56 in 10.0 mi Calm Calm - N/A   Overcast
7:53 AM 28.0 °F - 19.9 °F 72% 30.59 in 10.0 mi Calm Calm - N/A   Overcast
8:53 AM 30.9 °F - 18.0 °F 59% 30.61 in 10.0 mi Calm Calm - N/A   Scattered Clouds
9:53 AM 32.0 °F - 17.1 °F 54% 30.62 in 10.0 mi Calm Calm - N/A   Clear
10:53 AM 35.1 °F - 18.0 °F 50% 30.61 in 10.0 mi Calm Calm - N/A   Scattered Clouds
11:53 AM 36.0 °F 32.1 °F 17.1 °F 46% 30.60 in 10.0 mi Variable 4.6 mph - N/A   Mostly Cloudy
12:53 PM 36.0 °F 33.3 °F 17.1 °F 46% 30.61 in 10.0 mi Variable 3.5 mph - N/A   Scattered Clouds
1:53 PM 36.0 °F 28.5 °F 16.0 °F 44% 30.61 in 10.0 mi NNW 10.4 mph - N/A   Overcast
2:53 PM 36.0 °F 31.1 °F 17.1 °F 46% 30.63 in 10.0 mi NNW 5.8 mph - N/A   Overcast
3:53 PM 34.0 °F 28.8 °F 16.0 °F 48% 30.66 in 10.0 mi NNW 5.8 mph - N/A   Overcast
4:53 PM 32.0 °F 28.7 °F 17.1 °F 54% 30.68 in 10.0 mi NNW 3.5 mph - N/A   Scattered Clouds
5:53 PM 30.9 °F 26.2 °F 16.0 °F 54% 30.69 in 10.0 mi NNW 4.6 mph - N/A   Clear
6:53 PM 30.9 °F - 15.1 °F 52% 30.71 in 10.0 mi Calm Calm - N/A   Clear
7:53 PM 30.0 °F 25.2 °F 14.0 °F 51% 30.73 in 10.0 mi NNW 4.6 mph - N/A   Clear
8:53 PM 28.0 °F - 15.1 °F 58% 30.74 in 10.0 mi Calm Calm - N/A   Clear
9:53 PM 28.0 °F - 14.0 °F 56% 30.76 in 10.0 mi Calm Calm - N/A   Clear
10:53 PM 27.0 °F 23.0 °F 12.9 °F 56% 30.76 in 10.0 mi Variable 3.5 mph - N/A   Clear
11:53 PM 26.1 °F - 12.0 °F 55% 30.77 in 10.0 mi Calm Calm - N/A   Clear